Wetterdaten: aktuell Mittwoch, 17.07.2019 22:20
Datum Zeit Temp. A. CO2 I. Feuchte A. Laut Bat. Wind Bat. Regen Bat. A. Luftdruck Regen Wind Richtung Richtung Taupunkt Windchill Windben
17.07.2019 22:20 23,2 C 704 ppm 52 % 37 dB 52 % 100 % 100 % 1008,4 hPa 0,0 l/m 1,0 km/h N 0 12,8 C 23,2 C 2,0 km/h
17.07.2019 21:20 24,1 C 893 ppm 50 % 36 dB 53 % 100 % 100 % 1008,3 hPa 0,0 l/m 1,0 km/h S-SW 210 13,0 C 24,1 C 2,0 km/h
17.07.2019 20:20 25,0 C 887 ppm 48 % 36 dB 52 % 100 % 100 % 1007,6 hPa 0,0 l/m 2,0 km/h SO 135 13,2 C 25,0 C 4,0 km/h
17.07.2019 19:20 26,3 C 744 ppm 45 % 37 dB 52 % 100 % 100 % 1007,3 hPa 0,0 l/m 2,0 km/h O-SO 113 13,4 C 26,3 C 5,0 km/h
17.07.2019 18:20 27,1 C 681 ppm 44 % 36 dB 52 % 100 % 100 % 1007,4 hPa 0,0 l/m 1,0 km/h S-SO 153 13,8 C 27,1 C 4,0 km/h
17.07.2019 17:20 27,8 C 715 ppm 43 % 36 dB 52 % 100 % 100 % 1007,9 hPa 0,0 l/m 2,0 km/h SO 128 14,1 C 27,8 C 6,0 km/h
17.07.2019 16:20 27,7 C 775 ppm 43 % 36 dB 52 % 100 % 100 % 1008,3 hPa 0,0 l/m 3,0 km/h O-SO 116 14,0 C 27,7 C 8,0 km/h
17.07.2019 15:20 27,4 C 845 ppm 43 % 36 dB 52 % 100 % 100 % 1008,7 hPa 0,0 l/m 4,0 km/h O-SO 108 13,7 C 27,4 C 9,0 km/h
17.07.2019 14:20 28,2 C 870 ppm 42 % 47 dB 52 % 100 % 100 % 1009,3 hPa 0,0 l/m 3,0 km/h O-SO 103 14,0 C 28,2 C 14,0 km/h
17.07.2019 13:20 29,3 C 787 ppm 41 % 49 dB 52 % 100 % 100 % 1009,6 hPa 0,0 l/m 1,0 km/h SO 127 14,7 C 29,3 C 4,0 km/h
17.07.2019 12:20 29,4 C 600 ppm 42 % 46 dB 52 % 100 % 100 % 1010,0 hPa 0,0 l/m 2,0 km/h O-SO 111 15,1 C 29,4 C 4,0 km/h
17.07.2019 11:20 27,7 C 538 ppm 44 % 47 dB 52 % 100 % 100 % 1010,4 hPa 0,0 l/m 3,0 km/h O-SO 112 14,3 C 27,7 C 7,0 km/h
17.07.2019 10:20 26,1 C 518 ppm 45 % 43 dB 52 % 100 % 100 % 1010,8 hPa 0,0 l/m 3,0 km/h O-SO 105 13,2 C 26,1 C 11,0 km/h
17.07.2019 09:20 24,4 C 494 ppm 50 % 36 dB 52 % 100 % 100 % 1011,2 hPa 0,0 l/m 3,0 km/h O-SO 119 13,3 C 24,4 C 8,0 km/h
17.07.2019 08:20 22,7 C 467 ppm 53 % 35 dB 52 % 100 % 100 % 1011,3 hPa 0,0 l/m 1,0 km/h SO 144 12,6 C 22,7 C 5,0 km/h
17.07.2019 07:20 18,1 C 476 ppm 61 % 35 dB 52 % 100 % 100 % 1011,5 hPa 0,0 l/m 1,0 km/h SW 236 10,5 C 18,1 C 3,0 km/h
17.07.2019 06:20 17,0 C 485 ppm 63 % 35 dB 52 % 100 % 100 % 1011,3 hPa 0,0 l/m 1,0 km/h W 270 9,9 C 17,0 C 2,0 km/h
17.07.2019 05:10 17,1 C 485 ppm 63 % 35 dB 52 % 100 % 100 % 1011,1 hPa 0,0 l/m 1,0 km/h NW 315 10,0 C 17,1 C 2,0 km/h
17.07.2019 04:10 17,3 C 497 ppm 63 % 35 dB 52 % 100 % 100 % 1011,2 hPa 0,0 l/m 1,0 km/h W 270 10,2 C 17,3 C 2,0 km/h
17.07.2019 03:10 17,9 C 551 ppm 62 % 35 dB 52 % 100 % 100 % 1011,6 hPa 0,0 l/m 1,0 km/h W 270 10,5 C 17,9 C 2,0 km/h
17.07.2019 02:10 18,6 C 618 ppm 60 % 35 dB 52 % 100 % 100 % 1011,6 hPa 0,0 l/m 1,0 km/h S-SW 210 10,7 C 18,6 C 2,0 km/h
17.07.2019 01:10 19,6 C 641 ppm 57 % 35 dB 52 % 100 % 100 % 1011,3 hPa 0,0 l/m 1,0 km/h S 180 10,8 C 19,6 C 2,0 km/h
17.07.2019 00:10 20,6 C 681 ppm 54 % 38 dB 53 % 100 % 100 % 1011,0 hPa 0,0 l/m 1,0 km/h SO 135 11,0 C 20,6 C 3,0 km/h
17.07.2019 00:00 20,9 C 684 ppm 53 % 39 dB 53 % 100 % 100 % 1010,9 hPa 0,0 l/m 1,0 km/h S-SO 153 11,0 C 20,9 C 3,0 km/h
_ Min-Zeit 05:50 08:10 13:30 00:40 00:50 00:00 00:00 18:40 - 01:40 - - 05:50 05:50 01:00
Minimum _ 16,9 C 464 ppm 40 % 35 dB 52 % 100 % 100 % 1007,3 hPa - 0,0 km/h - - 9,8 C 16,9 C 2,0 km/h
_ Max-Zeit 12:20 21:10 04:10 14:00 00:00 00:00 00:00 02:50 00:00 15:20 - - 12:20 12:20 14:20
Maximum _ 29,4 C 900 ppm 63 % 51 dB 53 % 100 % 100 % 1011,7 hPa 0,0 l/m 4,0 km/h
O-SO
- - 15,1 C 29,4 C 14,0 km/h
O-SO
Durchschnitt _ 23,6 C 649 ppm 51 % 38 dB 52 % 100 % 100 % 1009,9 hPa #0,0 l/m 1,7 km/h O-SO - 12,5 C 23,6 C 4,7 km/h